contact:dominique.lefevre@mio.osupytheas.fr, maurice.libes@osupytheas.fr, didier.mallarino@osupytheas.fr
Project:EMSO http://www.emso-fr.org/EMSO-France
Depth: 2436.0 m
Title:EMSO Ligure Ouest : Data MII capteur MICROCAT
DateTime_Computer,Latitude,Longitude,Temperature,Conductivity,Pressure,DateTime_Instrument
DateTime_Computer,Latitude,Longitude,degC,S m-1,dbar,DateTime_Instrument
2021-07-17T00:00:45Z,42.805,6.029,13.3079,4.60019,2470.45,2021-7-17T02:02:01Z
2021-07-17T00:03:48Z,42.805,6.029,13.3061,4.60027,2470.474,2021-7-17T02:05:04Z
2021-07-17T00:06:51Z,42.805,6.029,13.3046,4.60039,2470.474,2021-7-17T02:08:07Z
2021-07-17T00:09:54Z,42.805,6.029,13.3039,4.60046,2470.474,2021-7-17T02:11:10Z
2021-07-17T00:12:57Z,42.805,6.029,13.3055,4.60026,2470.46,2021-7-17T02:14:14Z
2021-07-17T00:16:01Z,42.805,6.029,13.3058,4.60034,2470.437,2021-7-17T02:17:17Z
2021-07-17T00:19:04Z,42.805,6.029,13.3044,4.60026,2470.464,2021-7-17T02:20:20Z
2021-07-17T00:22:07Z,42.805,6.029,13.3066,4.60032,2470.474,2021-7-17T02:23:23Z
2021-07-17T00:25:10Z,42.805,6.029,13.3085,4.60041,2470.45,2021-7-17T02:26:26Z
2021-07-17T00:28:13Z,42.805,6.029,13.3043,4.60039,2470.413,2021-7-17T02:29:29Z
2021-07-17T00:31:16Z,42.805,6.029,13.3043,4.60043,2470.437,2021-7-17T02:32:32Z
2021-07-17T00:34:19Z,42.805,6.029,13.3042,4.60049,2470.45,2021-7-17T02:35:35Z
2021-07-17T00:37:22Z,42.805,6.029,13.3069,4.60052,2470.474,2021-7-17T02:38:39Z
2021-07-17T00:40:26Z,42.805,6.029,13.3044,4.60033,2470.437,2021-7-17T02:41:42Z
2021-07-17T00:43:29Z,42.805,6.029,13.3043,4.60045,2470.437,2021-7-17T02:44:45Z
2021-07-17T00:46:32Z,42.805,6.029,13.3039,4.60036,2470.474,2021-7-17T02:47:48Z
2021-07-17T00:49:35Z,42.805,6.029,13.3076,4.60041,2470.427,2021-7-17T02:50:51Z
2021-07-17T00:52:38Z,42.805,6.029,13.3026,4.60031,2470.46,2021-7-17T02:53:54Z
2021-07-17T00:55:41Z,42.805,6.029,13.3027,4.60027,2470.46,2021-7-17T02:56:57Z
2021-07-17T00:58:44Z,42.805,6.029,13.3051,4.60019,2470.39,2021-7-17T03:00:00Z
2021-07-17T01:01:47Z,42.805,6.029,13.3024,4.60051,2470.437,2021-7-17T03:03:04Z
2021-07-17T01:04:51Z,42.805,6.029,13.3057,4.60036,2470.413,2021-7-17T03:06:07Z
2021-07-17T01:07:54Z,42.805,6.029,13.3039,4.60031,2470.413,2021-7-17T03:09:10Z
2021-07-17T01:10:57Z,42.805,6.029,13.3055,4.60031,2470.413,2021-7-17T03:12:13Z
2021-07-17T01:14:00Z,42.805,6.029,13.3042,4.60040,2470.427,2021-7-17T03:15:16Z
2021-07-17T01:17:03Z,42.805,6.029,13.3031,4.60046,2470.427,2021-7-17T03:18:19Z
2021-07-17T01:20:06Z,42.805,6.029,13.3014,4.60029,2470.45,2021-7-17T03:21:22Z
2021-07-17T01:23:09Z,42.805,6.029,13.3015,4.60031,2470.474,2021-7-17T03:24:25Z
2021-07-17T01:26:12Z,42.805,6.029,13.3019,4.60016,2470.437,2021-7-17T03:27:28Z
2021-07-17T01:29:16Z,42.805,6.029,13.3008,4.60027,2470.45,2021-7-17T03:30:32Z
2021-07-17T01:32:19Z,42.805,6.029,13.3017,4.60058,2470.45,2021-7-17T03:33:35Z
2021-07-17T01:35:22Z,42.805,6.029,13.3026,4.60042,2470.427,2021-7-17T03:36:38Z
2021-07-17T01:38:25Z,42.805,6.029,13.3019,4.60062,2470.413,2021-7-17T03:39:41Z
2021-07-17T01:41:28Z,42.805,6.029,13.3017,4.60044,2470.437,2021-7-17T03:42:44Z
2021-07-17T01:44:31Z,42.805,6.029,13.3019,4.60029,2470.427,2021-7-17T03:45:47Z
2021-07-17T01:47:34Z,42.805,6.029,13.3027,4.60026,2470.427,2021-7-17T03:48:50Z
2021-07-17T01:50:37Z,42.805,6.029,13.3036,4.60052,2470.404,2021-7-17T03:51:53Z
2021-07-17T01:53:41Z,42.805,6.029,13.3051,4.60097,2470.39,2021-7-17T03:54:57Z
2021-07-17T01:56:44Z,42.805,6.029,13.3059,4.60122,2470.413,2021-7-17T03:58:00Z
2021-07-17T01:59:47Z,42.805,6.029,13.3058,4.60052,2470.441,2021-7-17T04:01:03Z
2021-07-17T02:02:50Z,42.805,6.029,13.3074,4.60110,2470.427,2021-7-17T04:04:06Z
2021-07-17T02:05:53Z,42.805,6.029,13.3036,4.60084,2470.413,2021-7-17T04:07:09Z
2021-07-17T02:08:56Z,42.805,6.029,13.3062,4.60042,2470.39,2021-7-17T04:10:12Z
2021-07-17T02:11:59Z,42.805,6.029,13.3062,4.60072,2470.45,2021-7-17T04:13:15Z
2021-07-17T02:15:02Z,42.805,6.029,13.3069,4.60076,2470.404,2021-7-17T04:16:18Z
2021-07-17T02:18:05Z,42.805,6.029,13.3037,4.60081,2470.399,2021-7-17T04:19:22Z
2021-07-17T02:21:09Z,42.805,6.029,13.3062,4.60066,2470.38,2021-7-17T04:22:25Z
2021-07-17T02:24:12Z,42.805,6.029,13.3060,4.60082,2470.404,2021-7-17T04:25:28Z
2021-07-17T02:27:15Z,42.805,6.029,13.3044,4.60070,2470.39,2021-7-17T04:28:31Z
2021-07-17T02:30:18Z,42.805,6.029,13.3045,4.60075,2470.38,2021-7-17T04:31:34Z
2021-07-17T02:33:21Z,42.805,6.029,13.3049,4.60055,2470.413,2021-7-17T04:34:37Z
2021-07-17T02:36:24Z,42.805,6.029,13.3054,4.60062,2470.427,2021-7-17T04:37:40Z
2021-07-17T02:39:27Z,42.805,6.029,13.3069,4.60062,2470.404,2021-7-17T04:40:43Z
2021-07-17T02:42:30Z,42.805,6.029,13.3042,4.60084,2470.427,2021-7-17T04:43:47Z
2021-07-17T02:45:34Z,42.805,6.029,13.3051,4.60064,2470.39,2021-7-17T04:46:50Z
2021-07-17T02:48:37Z,42.805,6.029,13.3055,4.60026,2470.38,2021-7-17T04:49:53Z
2021-07-17T02:51:40Z,42.805,6.029,13.3048,4.60079,2470.404,2021-7-17T04:52:56Z
2021-07-17T02:54:43Z,42.805,6.029,13.3026,4.60089,2470.413,2021-7-17T04:55:59Z
2021-07-17T02:57:46Z,42.805,6.029,13.3022,4.60060,2470.427,2021-7-17T04:59:02Z
2021-07-17T03:00:49Z,42.805,6.029,13.3036,4.60089,2470.366,2021-7-17T05:02:05Z
2021-07-17T03:03:52Z,42.805,6.029,13.3046,4.60046,2470.39,2021-7-17T05:05:08Z
2021-07-17T03:06:55Z,42.805,6.029,13.3046,4.60059,2470.404,2021-7-17T05:08:12Z
2021-07-17T03:09:59Z,42.805,6.029,13.3017,4.60039,2470.38,2021-7-17T05:11:15Z
2021-07-17T03:13:02Z,42.805,6.029,13.3019,4.60066,2470.343,2021-7-17T05:14:18Z
2021-07-17T03:16:05Z,42.805,6.029,13.2995,4.60047,2470.366,2021-7-17T05:17:21Z
2021-07-17T03:19:08Z,42.805,6.029,13.3009,4.60094,2470.343,2021-7-17T05:20:24Z
2021-07-17T03:22:11Z,42.805,6.029,13.3019,4.60077,2470.343,2021-7-17T05:23:27Z
2021-07-17T03:25:14Z,42.805,6.029,13.3029,4.60075,2470.39,2021-7-17T05:26:30Z
2021-07-17T03:28:17Z,42.805,6.029,13.3024,4.60053,2470.38,2021-7-17T05:29:33Z
2021-07-17T03:31:20Z,42.805,6.029,13.3008,4.60074,2470.357,2021-7-17T05:32:37Z
2021-07-17T03:34:24Z,42.805,6.029,13.3029,4.60033,2470.343,2021-7-17T05:35:40Z
2021-07-17T03:37:27Z,42.805,6.029,13.3026,4.60055,2470.38,2021-7-17T05:38:43Z
2021-07-17T03:40:30Z,42.805,6.029,13.3024,4.60036,2470.343,2021-7-17T05:41:46Z
2021-07-17T03:43:33Z,42.805,6.029,13.3025,4.60074,2470.357,2021-7-17T05:44:49Z
2021-07-17T03:46:36Z,42.805,6.029,13.3030,4.60078,2470.343,2021-7-17T05:47:52Z
2021-07-17T03:49:39Z,42.805,6.029,13.3033,4.60086,2470.343,2021-7-17T05:50:55Z
2021-07-17T03:52:42Z,42.805,6.029,13.3027,4.60084,2470.32,2021-7-17T05:53:58Z
2021-07-17T03:55:45Z,42.805,6.029,13.3010,4.60055,2470.357,2021-7-17T05:57:02Z
2021-07-17T03:58:49Z,42.805,6.029,13.3011,4.60093,2470.334,2021-7-17T06:00:05Z
2021-07-17T04:01:52Z,42.805,6.029,13.3011,4.60092,2470.297,2021-7-17T06:03:08Z
2021-07-17T04:04:55Z,42.805,6.029,13.3019,4.60090,2470.38,2021-7-17T06:06:11Z
2021-07-17T04:07:58Z,42.805,6.029,13.3004,4.60079,2470.343,2021-7-17T06:09:14Z
2021-07-17T04:11:01Z,42.805,6.029,13.3004,4.60074,2470.31,2021-7-17T06:12:17Z
2021-07-17T04:14:04Z,42.805,6.029,13.3000,4.60072,2470.357,2021-7-17T06:15:20Z
2021-07-17T04:17:07Z,42.805,6.029,13.3006,4.60052,2470.343,2021-7-17T06:18:23Z
2021-07-17T04:20:10Z,42.805,6.029,13.3011,4.60128,2470.32,2021-7-17T06:21:27Z
2021-07-17T04:23:14Z,42.805,6.029,13.3018,4.60087,2470.357,2021-7-17T06:24:30Z
2021-07-17T04:26:17Z,42.805,6.029,13.3004,4.60072,2470.343,2021-7-17T06:27:33Z
2021-07-17T04:29:20Z,42.805,6.029,13.3011,4.60072,2470.343,2021-7-17T06:30:36Z
2021-07-17T04:32:23Z,42.805,6.029,13.3009,4.60099,2470.357,2021-7-17T06:33:39Z
2021-07-17T04:35:26Z,42.805,6.029,13.3027,4.60057,2470.32,2021-7-17T06:36:42Z
2021-07-17T04:38:29Z,42.805,6.029,13.3006,4.60058,2470.357,2021-7-17T06:39:45Z
2021-07-17T04:41:32Z,42.805,6.029,13.3026,4.60053,2470.297,2021-7-17T06:42:48Z
2021-07-17T04:44:35Z,42.805,6.029,13.3017,4.60069,2470.334,2021-7-17T06:45:52Z
2021-07-17T04:47:39Z,42.805,6.029,13.3010,4.60035,2470.334,2021-7-17T06:48:55Z
2021-07-17T04:50:42Z,42.805,6.029,13.3007,4.60044,2470.366,2021-7-17T06:51:58Z
2021-07-17T04:53:45Z,42.805,6.029,13.3007,4.60073,2470.334,2021-7-17T06:55:01Z
2021-07-17T04:56:48Z,42.805,6.029,13.3010,4.60081,2470.31,2021-7-17T06:58:04Z
2021-07-17T04:59:51Z,42.805,6.029,13.3025,4.60044,2470.32,2021-7-17T07:01:07Z
2021-07-17T05:02:54Z,42.805,6.029,13.3036,4.60049,2470.334,2021-7-17T07:04:10Z
2021-07-17T05:05:57Z,42.805,6.029,13.3018,4.60095,2470.297,2021-7-17T07:07:13Z
2021-07-17T05:09:00Z,42.805,6.029,13.3041,4.60072,2470.334,2021-7-17T07:10:17Z
2021-07-17T05:12:04Z,42.805,6.029,13.3036,4.60058,2470.31,2021-7-17T07:13:20Z
2021-07-17T05:15:07Z,42.805,6.029,13.3041,4.60042,2470.32,2021-7-17T07:16:23Z
2021-07-17T05:18:10Z,42.805,6.029,13.3040,4.60059,2470.31,2021-7-17T07:19:26Z
2021-07-17T05:21:13Z,42.805,6.029,13.3048,4.60102,2470.334,2021-7-17T07:22:29Z
2021-07-17T05:24:16Z,42.805,6.029,13.3024,4.60067,2470.31,2021-7-17T07:25:32Z
2021-07-17T05:27:19Z,42.805,6.029,13.3047,4.60092,2470.297,2021-7-17T07:28:35Z
2021-07-17T05:30:22Z,42.805,6.029,13.3040,4.60115,2470.287,2021-7-17T07:31:38Z
2021-07-17T05:33:25Z,42.805,6.029,13.3051,4.60070,2470.334,2021-7-17T07:34:42Z
2021-07-17T05:36:29Z,42.805,6.029,13.3061,4.60059,2470.31,2021-7-17T07:37:45Z
2021-07-17T05:39:32Z,42.805,6.029,13.3056,4.60071,2470.32,2021-7-17T07:40:48Z
2021-07-17T05:42:35Z,42.805,6.029,13.3061,4.60057,2470.31,2021-7-17T07:43:51Z
2021-07-17T05:45:38Z,42.805,6.029,13.3019,4.60086,2470.334,2021-7-17T07:46:54Z
2021-07-17T05:48:41Z,42.805,6.029,13.3050,4.60092,2470.334,2021-7-17T07:49:57Z
2021-07-17T05:51:44Z,42.805,6.029,13.3032,4.60059,2470.334,2021-7-17T07:53:00Z
2021-07-17T05:54:47Z,42.805,6.029,13.3029,4.60081,2470.32,2021-7-17T07:56:03Z
2021-07-17T05:57:50Z,42.805,6.029,13.3037,4.60033,2470.334,2021-7-17T07:59:07Z
2021-07-17T06:00:54Z,42.805,6.029,13.3046,4.60033,2470.32,2021-7-17T08:02:10Z
2021-07-17T06:03:57Z,42.805,6.029,13.3043,4.60069,2470.31,2021-7-17T08:05:13Z
2021-07-17T06:07:00Z,42.805,6.029,13.3056,4.60074,2470.31,2021-7-17T08:08:16Z
2021-07-17T06:10:03Z,42.805,6.029,13.3045,4.60067,2470.31,2021-7-17T08:11:19Z
2021-07-17T06:13:06Z,42.805,6.029,13.3053,4.60078,2470.31,2021-7-17T08:14:22Z
2021-07-17T06:16:09Z,42.805,6.029,13.3058,4.60046,2470.31,2021-7-17T08:17:25Z
2021-07-17T06:19:12Z,42.805,6.029,13.3034,4.60066,2470.25,2021-7-17T08:20:28Z
2021-07-17T06:22:15Z,42.805,6.029,13.3007,4.60081,2470.273,2021-7-17T08:23:31Z
2021-07-17T06:25:19Z,42.805,6.029,13.3008,4.60070,2470.287,2021-7-17T08:26:35Z
2021-07-17T06:28:22Z,42.805,6.029,13.3018,4.60056,2470.287,2021-7-17T08:29:38Z
2021-07-17T06:31:25Z,42.805,6.029,13.3026,4.60065,2470.334,2021-7-17T08:32:41Z
2021-07-17T06:34:28Z,42.805,6.029,13.3030,4.60064,2470.287,2021-7-17T08:35:44Z
2021-07-17T06:37:31Z,42.805,6.029,13.3037,4.60073,2470.297,2021-7-17T08:38:47Z
2021-07-17T06:40:34Z,42.805,6.029,13.3029,4.60074,2470.297,2021-7-17T08:41:50Z
2021-07-17T06:43:37Z,42.805,6.029,13.3043,4.60069,2470.273,2021-7-17T08:44:53Z
2021-07-17T06:46:40Z,42.805,6.029,13.3046,4.60054,2470.287,2021-7-17T08:47:57Z
2021-07-17T06:49:44Z,42.805,6.029,13.3036,4.60063,2470.264,2021-7-17T08:51:00Z
2021-07-17T06:52:47Z,42.805,6.029,13.3030,4.60081,2470.273,2021-7-17T08:54:03Z
2021-07-17T06:55:50Z,42.805,6.029,13.3018,4.60067,2470.25,2021-7-17T08:57:06Z
2021-07-17T06:58:53Z,42.805,6.029,13.3034,4.60078,2470.25,2021-7-17T09:00:09Z
2021-07-17T07:01:56Z,42.805,6.029,13.3029,4.60102,2470.287,2021-7-17T09:03:12Z
2021-07-17T07:04:59Z,42.805,6.029,13.3018,4.60081,2470.25,2021-7-17T09:06:15Z
2021-07-17T07:08:02Z,42.805,6.029,13.3033,4.60066,2470.287,2021-7-17T09:09:18Z
2021-07-17T07:11:05Z,42.805,6.029,13.3025,4.60069,2470.273,2021-7-17T09:12:21Z
2021-07-17T07:14:08Z,42.805,6.029,13.3036,4.60062,2470.264,2021-7-17T09:15:25Z
2021-07-17T07:17:12Z,42.805,6.029,13.3036,4.60039,2470.264,2021-7-17T09:18:28Z
2021-07-17T07:20:15Z,42.805,6.029,13.3045,4.60073,2470.273,2021-7-17T09:21:31Z
2021-07-17T07:23:18Z,42.805,6.029,13.3048,4.60062,2470.264,2021-7-17T09:24:34Z
2021-07-17T07:26:21Z,42.805,6.029,13.3039,4.60081,2470.287,2021-7-17T09:27:37Z
2021-07-17T07:29:24Z,42.805,6.029,13.3045,4.60057,2470.264,2021-7-17T09:30:40Z
2021-07-17T07:32:27Z,42.805,6.029,13.3056,4.60050,2470.236,2021-7-17T09:33:43Z
2021-07-17T07:35:30Z,42.805,6.029,13.3044,4.60050,2470.25,2021-7-17T09:36:46Z
2021-07-17T07:38:33Z,42.805,6.029,13.3009,4.60067,2470.264,2021-7-17T09:39:50Z
2021-07-17T07:41:37Z,42.805,6.029,13.3047,4.60072,2470.287,2021-7-17T09:42:53Z
2021-07-17T07:44:40Z,42.805,6.029,13.3022,4.60077,2470.273,2021-7-17T09:45:56Z
2021-07-17T07:47:43Z,42.805,6.029,13.3033,4.60110,2470.287,2021-7-17T09:48:59Z
2021-07-17T07:50:46Z,42.805,6.029,13.3041,4.60103,2470.25,2021-7-17T09:52:02Z
2021-07-17T07:53:49Z,42.805,6.029,13.3041,4.60072,2470.273,2021-7-17T09:55:05Z
2021-07-17T07:56:52Z,42.805,6.029,13.3016,4.60069,2470.273,2021-7-17T09:58:08Z
2021-07-17T07:59:55Z,42.805,6.029,13.3038,4.60064,2470.31,2021-7-17T10:01:11Z
2021-07-17T08:02:58Z,42.805,6.029,13.3014,4.60057,2470.264,2021-7-17T10:04:15Z
2021-07-17T08:06:02Z,42.805,6.029,13.3018,4.60072,2470.287,2021-7-17T10:07:18Z
2021-07-17T08:09:05Z,42.805,6.029,13.3042,4.60089,2470.287,2021-7-17T10:10:21Z
2021-07-17T08:12:08Z,42.805,6.029,13.3026,4.60077,2470.25,2021-7-17T10:13:24Z
2021-07-17T08:15:11Z,42.805,6.029,13.3014,4.60085,2470.25,2021-7-17T10:16:27Z
2021-07-17T08:18:14Z,42.805,6.029,13.3033,4.60091,2470.287,2021-7-17T10:19:30Z
2021-07-17T08:21:17Z,42.805,6.029,13.3025,4.60052,2470.264,2021-7-17T10:22:33Z
2021-07-17T08:24:20Z,42.805,6.029,13.3029,4.60067,2470.273,2021-7-17T10:25:37Z
2021-07-17T08:27:24Z,42.805,6.029,13.3027,4.60046,2470.297,2021-7-17T10:28:40Z
2021-07-17T08:30:27Z,42.805,6.029,13.3046,4.60081,2470.287,2021-7-17T10:31:43Z
2021-07-17T08:33:30Z,42.805,6.029,13.3047,4.60050,2470.273,2021-7-17T10:34:46Z
2021-07-17T08:36:33Z,42.805,6.029,13.3054,4.60079,2470.273,2021-7-17T10:37:49Z
2021-07-17T08:39:36Z,42.805,6.029,13.3057,4.60099,2470.236,2021-7-17T10:40:52Z
2021-07-17T08:42:39Z,42.805,6.029,13.3055,4.60082,2470.287,2021-7-17T10:43:55Z
2021-07-17T08:45:42Z,42.805,6.029,13.3077,4.60042,2470.31,2021-7-17T10:46:58Z
2021-07-17T08:48:45Z,42.805,6.029,13.3067,4.60044,2470.287,2021-7-17T10:50:02Z
2021-07-17T08:51:49Z,42.805,6.029,13.3036,4.60054,2470.273,2021-7-17T10:53:05Z
2021-07-17T08:54:52Z,42.805,6.029,13.3022,4.60072,2470.297,2021-7-17T10:56:08Z
2021-07-17T08:57:55Z,42.805,6.029,13.3064,4.60063,2470.287,2021-7-17T10:59:11Z
2021-07-17T09:00:58Z,42.805,6.029,13.3038,4.60126,2470.297,2021-7-17T11:02:14Z
2021-07-17T09:04:01Z,42.805,6.029,13.3047,4.60057,2470.297,2021-7-17T11:05:17Z
2021-07-17T09:07:04Z,42.805,6.029,13.3058,4.60049,2470.297,2021-7-17T11:08:20Z
2021-07-17T09:10:07Z,42.805,6.029,13.3061,4.60031,2470.31,2021-7-17T11:11:23Z
2021-07-17T09:13:10Z,42.805,6.029,13.3063,4.60046,2470.297,2021-7-17T11:14:27Z
2021-07-17T09:16:14Z,42.805,6.029,13.3072,4.60061,2470.297,2021-7-17T11:17:30Z
2021-07-17T09:19:17Z,42.805,6.029,13.3049,4.60064,2470.297,2021-7-17T11:20:33Z
2021-07-17T09:22:20Z,42.805,6.029,13.3021,4.60049,2470.31,2021-7-17T11:23:36Z
2021-07-17T09:25:23Z,42.805,6.029,13.3036,4.60102,2470.297,2021-7-17T11:26:39Z
2021-07-17T09:28:26Z,42.805,6.029,13.3055,4.60057,2470.297,2021-7-17T11:29:42Z
2021-07-17T09:31:29Z,42.805,6.029,13.3051,4.60022,2470.32,2021-7-17T11:32:45Z
2021-07-17T09:34:32Z,42.805,6.029,13.3066,4.60036,2470.31,2021-7-17T11:35:49Z
2021-07-17T09:37:36Z,42.805,6.029,13.3063,4.60039,2470.31,2021-7-17T11:38:52Z
2021-07-17T09:40:39Z,42.805,6.029,13.3020,4.60039,2470.31,2021-7-17T11:41:55Z
2021-07-17T09:43:42Z,42.805,6.029,13.3021,4.60042,2470.357,2021-7-17T11:44:58Z
2021-07-17T09:46:45Z,42.805,6.029,13.3029,4.60063,2470.297,2021-7-17T11:48:01Z
2021-07-17T09:49:48Z,42.805,6.029,13.3023,4.60041,2470.31,2021-7-17T11:51:04Z
2021-07-17T09:52:51Z,42.805,6.029,13.3047,4.60067,2470.334,2021-7-17T11:54:07Z
2021-07-17T09:55:54Z,42.805,6.029,13.3012,4.60086,2470.273,2021-7-17T11:57:10Z
2021-07-17T09:58:57Z,42.805,6.029,13.3004,4.60066,2470.334,2021-7-17T12:00:14Z
2021-07-17T10:02:01Z,42.805,6.029,13.3026,4.60077,2470.31,2021-7-17T12:03:17Z
2021-07-17T10:05:04Z,42.805,6.029,13.3036,4.60033,2470.334,2021-7-17T12:06:20Z
2021-07-17T10:08:07Z,42.805,6.029,13.3036,4.60069,2470.32,2021-7-17T12:09:23Z
2021-07-17T10:11:10Z,42.805,6.029,13.3054,4.60033,2470.334,2021-7-17T12:12:26Z
2021-07-17T10:14:13Z,42.805,6.029,13.3026,4.60031,2470.31,2021-7-17T12:15:29Z
2021-07-17T10:17:16Z,42.805,6.029,13.3024,4.60054,2470.32,2021-7-17T12:18:32Z
2021-07-17T10:20:19Z,42.805,6.029,13.3011,4.60043,2470.334,2021-7-17T12:21:35Z
2021-07-17T10:23:22Z,42.805,6.029,13.3031,4.60094,2470.32,2021-7-17T12:24:39Z
2021-07-17T10:26:26Z,42.805,6.029,13.3054,4.60076,2470.31,2021-7-17T12:27:42Z
2021-07-17T10:29:29Z,42.805,6.029,13.3044,4.60044,2470.357,2021-7-17T12:30:45Z
2021-07-17T10:32:32Z,42.805,6.029,13.3064,4.60074,2470.297,2021-7-17T12:33:48Z
2021-07-17T10:35:35Z,42.805,6.029,13.3060,4.60046,2470.32,2021-7-17T12:36:51Z
2021-07-17T10:38:38Z,42.805,6.029,13.3025,4.60069,2470.32,2021-7-17T12:39:54Z
2021-07-17T10:41:41Z,42.805,6.029,13.3035,4.60098,2470.31,2021-7-17T12:42:57Z
2021-07-17T10:44:44Z,42.805,6.029,13.3009,4.60094,2470.357,2021-7-17T12:46:01Z
2021-07-17T10:47:47Z,42.805,6.029,13.3021,4.60084,2470.32,2021-7-17T12:49:04Z
2021-07-17T10:50:51Z,42.805,6.029,13.3031,4.60068,2470.334,2021-7-17T12:52:07Z
2021-07-17T10:53:54Z,42.805,6.029,13.3019,4.60077,2470.343,2021-7-17T12:55:10Z
2021-07-17T10:56:57Z,42.805,6.029,13.3039,4.60077,2470.31,2021-7-17T12:58:13Z
2021-07-17T11:00:00Z,42.805,6.029,13.3054,4.60095,2470.343,2021-7-17T13:01:16Z
2021-07-17T11:03:03Z,42.805,6.029,13.3011,4.60064,2470.38,2021-7-17T13:04:19Z
2021-07-17T11:06:06Z,42.805,6.029,13.3039,4.60076,2470.357,2021-7-17T13:07:22Z
2021-07-17T11:09:09Z,42.805,6.029,13.3024,4.60072,2470.32,2021-7-17T13:10:25Z
2021-07-17T11:12:12Z,42.805,6.029,13.3050,4.60084,2470.32,2021-7-17T13:13:29Z
2021-07-17T11:15:16Z,42.805,6.029,13.3022,4.60069,2470.357,2021-7-17T13:16:32Z
2021-07-17T11:18:19Z,42.805,6.029,13.3015,4.60075,2470.343,2021-7-17T13:19:35Z
2021-07-17T11:21:22Z,42.805,6.029,13.3042,4.60067,2470.357,2021-7-17T13:22:38Z
2021-07-17T11:24:25Z,42.805,6.029,13.3036,4.60049,2470.32,2021-7-17T13:25:41Z
2021-07-17T11:27:28Z,42.805,6.029,13.3008,4.60097,2470.343,2021-7-17T13:28:44Z
2021-07-17T11:30:31Z,42.805,6.029,13.3021,4.60031,2470.343,2021-7-17T13:31:47Z
2021-07-17T11:33:34Z,42.805,6.029,13.3038,4.60033,2470.366,2021-7-17T13:34:51Z
2021-07-17T11:36:38Z,42.805,6.029,13.3048,4.60025,2470.32,2021-7-17T13:37:54Z
2021-07-17T11:39:41Z,42.805,6.029,13.3041,4.60089,2470.357,2021-7-17T13:40:57Z
2021-07-17T11:42:44Z,42.805,6.029,13.3034,4.60056,2470.343,2021-7-17T13:44:00Z
2021-07-17T11:45:47Z,42.805,6.029,13.3025,4.60049,2470.357,2021-7-17T13:47:03Z
2021-07-17T11:48:50Z,42.805,6.029,13.3044,4.60036,2470.334,2021-7-17T13:50:06Z
2021-07-17T11:51:53Z,42.805,6.029,13.3051,4.60064,2470.366,2021-7-17T13:53:09Z
2021-07-17T11:54:56Z,42.805,6.029,13.3048,4.60065,2470.366,2021-7-17T13:56:12Z
2021-07-17T11:57:59Z,42.805,6.029,13.3058,4.60074,2470.38,2021-7-17T13:59:16Z
2021-07-17T12:01:03Z,42.805,6.029,13.3061,4.60093,2470.343,2021-7-17T14:02:19Z
2021-07-17T12:04:06Z,42.805,6.029,13.3063,4.60061,2470.38,2021-7-17T14:05:22Z
2021-07-17T12:07:09Z,42.805,6.029,13.3065,4.60044,2470.334,2021-7-17T14:08:25Z
2021-07-17T12:10:12Z,42.805,6.029,13.3063,4.60036,2470.343,2021-7-17T14:11:28Z
2021-07-17T12:13:15Z,42.805,6.029,13.3050,4.60054,2470.357,2021-7-17T14:14:31Z
2021-07-17T12:16:18Z,42.805,6.029,13.3048,4.60092,2470.38,2021-7-17T14:17:34Z
2021-07-17T12:19:21Z,42.805,6.029,13.3071,4.60036,2470.334,2021-7-17T14:20:37Z
2021-07-17T12:22:24Z,42.805,6.029,13.3039,4.60062,2470.334,2021-7-17T14:23:41Z
2021-07-17T12:25:28Z,42.805,6.029,13.3058,4.60060,2470.38,2021-7-17T14:26:44Z
2021-07-17T12:28:31Z,42.805,6.029,13.3053,4.60039,2470.39,2021-7-17T14:29:47Z
2021-07-17T12:31:34Z,42.805,6.029,13.3039,4.60036,2470.39,2021-7-17T14:32:50Z
2021-07-17T12:34:37Z,42.805,6.029,13.3033,4.60059,2470.38,2021-7-17T14:35:53Z
2021-07-17T12:37:40Z,42.805,6.029,13.3017,4.60040,2470.38,2021-7-17T14:38:56Z
2021-07-17T12:40:43Z,42.805,6.029,13.3043,4.60047,2470.38,2021-7-17T14:41:59Z
2021-07-17T12:43:46Z,42.805,6.029,13.3056,4.60044,2470.38,2021-7-17T14:45:03Z
2021-07-17T12:46:50Z,42.805,6.029,13.3067,4.60067,2470.357,2021-7-17T14:48:06Z
2021-07-17T12:49:53Z,42.805,6.029,13.3066,4.60031,2470.343,2021-7-17T14:51:09Z
2021-07-17T12:52:56Z,42.805,6.029,13.3073,4.60080,2470.39,2021-7-17T14:54:12Z
2021-07-17T12:55:59Z,42.805,6.029,13.3074,4.60073,2470.427,2021-7-17T14:57:15Z
2021-07-17T12:59:02Z,42.805,6.029,13.3073,4.60049,2470.38,2021-7-17T15:00:18Z
2021-07-17T13:02:05Z,42.805,6.029,13.3058,4.60054,2470.366,2021-7-17T15:03:21Z
2021-07-17T13:05:08Z,42.805,6.029,13.3014,4.60036,2470.357,2021-7-17T15:06:24Z
2021-07-17T13:08:11Z,42.805,6.029,13.3011,4.60069,2470.38,2021-7-17T15:09:28Z
2021-07-17T13:11:15Z,42.805,6.029,13.3030,4.60050,2470.38,2021-7-17T15:12:31Z
2021-07-17T13:14:18Z,42.805,6.029,13.3041,4.60026,2470.357,2021-7-17T15:15:34Z
2021-07-17T13:17:21Z,42.805,6.029,13.3036,4.60036,2470.366,2021-7-17T15:18:37Z
2021-07-17T13:20:24Z,42.805,6.029,13.3028,4.60050,2470.366,2021-7-17T15:21:40Z
2021-07-17T13:23:27Z,42.805,6.029,13.3020,4.60022,2470.38,2021-7-17T15:24:43Z
2021-07-17T13:26:30Z,42.805,6.029,13.3019,4.60032,2470.39,2021-7-17T15:27:46Z
2021-07-17T13:29:33Z,42.805,6.029,13.3012,4.60053,2470.39,2021-7-17T15:30:49Z
2021-07-17T13:32:36Z,42.805,6.029,13.3004,4.60042,2470.38,2021-7-17T15:33:53Z
2021-07-17T13:35:40Z,42.805,6.029,13.3013,4.60049,2470.343,2021-7-17T15:36:56Z
2021-07-17T13:38:43Z,42.805,6.029,13.3026,4.60040,2470.343,2021-7-17T15:39:59Z
2021-07-17T13:41:46Z,42.805,6.029,13.3019,4.60036,2470.334,2021-7-17T15:43:02Z
2021-07-17T13:44:49Z,42.805,6.029,13.3015,4.60054,2470.32,2021-7-17T15:46:05Z
2021-07-17T13:47:52Z,42.805,6.029,13.3015,4.60042,2470.343,2021-7-17T15:49:08Z
2021-07-17T13:50:55Z,42.805,6.029,13.3017,4.60057,2470.38,2021-7-17T15:52:11Z
2021-07-17T13:53:58Z,42.805,6.029,13.3027,4.60029,2470.366,2021-7-17T15:55:14Z
2021-07-17T13:57:01Z,42.805,6.029,13.3031,4.60051,2470.357,2021-7-17T15:58:18Z
2021-07-17T14:00:05Z,42.805,6.029,13.3034,4.60048,2470.334,2021-7-17T16:01:21Z
2021-07-17T14:03:08Z,42.805,6.029,13.3034,4.60058,2470.357,2021-7-17T16:04:24Z
2021-07-17T14:06:11Z,42.805,6.029,13.3029,4.60049,2470.334,2021-7-17T16:07:27Z
2021-07-17T14:09:14Z,42.805,6.029,13.3028,4.60037,2470.334,2021-7-17T16:10:30Z
2021-07-17T14:12:17Z,42.805,6.029,13.3028,4.60052,2470.334,2021-7-17T16:13:33Z
2021-07-17T14:15:20Z,42.805,6.029,13.3045,4.60053,2470.38,2021-7-17T16:16:36Z
2021-07-17T14:18:23Z,42.805,6.029,13.3067,4.60051,2470.334,2021-7-17T16:19:39Z
2021-07-17T14:21:26Z,42.805,6.029,13.3053,4.60049,2470.32,2021-7-17T16:22:43Z
2021-07-17T14:24:30Z,42.805,6.029,13.3042,4.60070,2470.357,2021-7-17T16:25:46Z
2021-07-17T14:27:33Z,42.805,6.029,13.3053,4.60045,2470.334,2021-7-17T16:28:49Z
2021-07-17T14:30:36Z,42.805,6.029,13.3054,4.60047,2470.31,2021-7-17T16:31:52Z
2021-07-17T14:33:39Z,42.805,6.029,13.3059,4.60053,2470.357,2021-7-17T16:34:55Z
2021-07-17T14:36:42Z,42.805,6.029,13.3050,4.60042,2470.32,2021-7-17T16:37:58Z
2021-07-17T14:39:45Z,42.805,6.029,13.3043,4.60044,2470.357,2021-7-17T16:41:01Z
2021-07-17T14:42:48Z,42.805,6.029,13.3056,4.60062,2470.357,2021-7-17T16:44:05Z
2021-07-17T14:45:51Z,42.805,6.029,13.3028,4.60070,2470.334,2021-7-17T16:47:08Z
2021-07-17T14:48:55Z,42.805,6.029,13.3027,4.60026,2470.297,2021-7-17T16:50:11Z
2021-07-17T14:51:58Z,42.805,6.029,13.3019,4.60049,2470.357,2021-7-17T16:53:14Z
2021-07-17T14:55:01Z,42.805,6.029,13.3031,4.60032,2470.31,2021-7-17T16:56:17Z
2021-07-17T14:58:04Z,42.805,6.029,13.3036,4.60039,2470.31,2021-7-17T16:59:20Z
2021-07-17T15:01:07Z,42.805,6.029,13.3031,4.60036,2470.357,2021-7-17T17:02:23Z
2021-07-17T15:04:10Z,42.805,6.029,13.3050,4.60059,2470.32,2021-7-17T17:05:26Z
2021-07-17T15:07:13Z,42.805,6.029,13.3032,4.60059,2470.334,2021-7-17T17:08:30Z
2021-07-17T15:10:17Z,42.805,6.029,13.3031,4.60051,2470.273,2021-7-17T17:11:33Z
2021-07-17T15:13:20Z,42.805,6.029,13.3014,4.60042,2470.31,2021-7-17T17:14:36Z